Hagerstown, MD

10:24 PM EDT on October 18, 2019 (GMT -0400)
Hagerstown Regional-Henson

Weather History for KHGR - September, 2019

Change the Weather History Date:

Sunday, September 15, 2019

  Actual Average Record
Temperature  
Mean Temperature 74 °F 66 °F  
Max Temperature 86 °F 76 °F 91 °F (1998)
Min Temperature 62 °F 57 °F 43 °F (2001)
Degree Days  
Heating Degree Days 0 2  
Month to date heating degree days 0 12  
Since 1 July heating degree days 0 17  
Cooling Degree Days 9 3  
Month to date cooling degree days 136 66  
Year to date cooling degree days 1345 934  
Growing Degree Days 23 (Base 50)    
Moisture  
Dew Point 59 °F    
Average Humidity 63    
Maximum Humidity 93    
Minimum Humidity 32    
Precipitation  
Precipitation 0.00 in 0.13 in 0.90 in (2011)
Month to date precipitation 0.38 1.58  
Year to date precipitation 28.75 28.21  
Sea Level Pressure  
Sea Level Pressure 30.19 in    
Wind  
Wind Speed 2 mph (NW)    
Max Wind Speed 9 mph    
Max Gust Speed 12 mph    
Visibility 7 miles    
Events Fog    
T = Trace of Precipitation, MM = Missing Value Source: NWS Daily Summary

Daily Weather History Graph

Daily Weather History Graph

Search for Another Location

Airport or City:

Astronomy

Sep. 15, 2019 Rise Set
Actual Time 6:51 AM EDT 7:19 PM EDT
Civil Twilight 6:24 AM EDT 7:46 PM EDT
Nautical Twilight 5:52 AM EDT 8:18 PM EDT
Astronomical Twilight 5:20 AM EDT 8:51 PM EDT
Moon 8:26 PM EDT (9/15) 7:59 AM EDT (9/15)
Length of Visible Light 13h 22m
Length of Day
12h 28m
Full, 98% of the Moon is Illuminated
Sep 15
Full
Sep 21
Last Quarter
Sep 28
New
Oct 5
First Quarter
Oct 13
Full

Hourly Weather History & Observations

Time (EDT) Temp. Heat Index Dew Point Humidity Pressure Visibility Wind Dir Wind Speed Gust Speed Precip Events Conditions
12:53 AM 69.1 °F - 64.9 °F 87% 30.19 in 9.0 mi Calm Calm - N/A   Clear
1:44 AM 64.9 °F - 63.0 °F 93% 30.18 in 1.8 mi NW 5.8 mph - N/A   Partly Cloudy
1:48 AM 64.4 °F - 62.6 °F 94% 30.18 in 0.8 mi NW 4.6 mph - N/A   Mist
1:53 AM 64.9 °F - 63.0 °F 93% 30.20 in 0.5 mi WNW 3.5 mph - N/A Fog Fog
2:41 AM 64.9 °F - 64.0 °F 97% 30.19 in 0.2 mi Calm Calm - N/A Fog Fog
2:53 AM 66.0 °F - 64.0 °F 93% 30.21 in 0.2 mi NNW 5.8 mph - N/A Fog Fog
3:01 AM 64.9 °F - 64.0 °F 97% 30.19 in 1.0 mi NNW 5.8 mph - N/A   Mist
3:06 AM 64.9 °F - 64.0 °F 97% 30.19 in 3.0 mi NNW 5.8 mph - N/A   Mostly Cloudy
3:14 AM 66.0 °F - 64.0 °F 93% 30.19 in 6.0 mi NNW 4.6 mph - N/A   Scattered Clouds
3:53 AM 66.0 °F - 64.0 °F 93% 30.21 in 7.0 mi NNE 3.5 mph - N/A   Clear
4:53 AM 64.0 °F - 62.1 °F 93% 30.22 in 9.0 mi Calm Calm - N/A   Clear
5:16 AM 63.0 °F - 61.0 °F 93% 30.20 in 2.0 mi Calm Calm - N/A   Partly Cloudy
5:18 AM 63.0 °F - 61.0 °F 93% 30.20 in 1.0 mi Calm Calm - N/A   Mist
5:26 AM 63.0 °F - 61.0 °F 93% 30.20 in 0.8 mi Calm Calm - N/A   Mist
5:30 AM 63.0 °F - 61.0 °F 93% 30.20 in 1.2 mi Calm Calm - N/A   Partly Cloudy
5:48 AM 62.6 °F - 60.8 °F 94% 30.21 in 3.0 mi NW 4.6 mph - N/A   Clear
5:53 AM 63.0 °F - 61.0 °F 93% 30.23 in 4.0 mi NW 4.6 mph - N/A   Clear
6:53 AM 63.0 °F - 59.0 °F 87% 30.23 in 10.0 mi NNW 4.6 mph - N/A   Clear
7:53 AM 64.0 °F - 59.0 °F 84% 30.23 in 10.0 mi NNW 4.6 mph - N/A   Clear
8:53 AM 66.9 °F - 61.0 °F 81% 30.24 in 10.0 mi Calm Calm - N/A   Clear
9:53 AM 71.1 °F - 57.9 °F 63% 30.25 in 10.0 mi Variable 3.5 mph - N/A   Clear
10:53 AM 73.9 °F - 57.0 °F 55% 30.25 in 10.0 mi NW 4.6 mph - N/A   Clear
11:53 AM 75.9 °F - 54.0 °F 46% 30.23 in 10.0 mi Calm Calm - N/A   Clear
12:53 PM 79.0 °F - 54.0 °F 42% 30.21 in 10.0 mi Variable 5.8 mph - N/A   Clear
1:53 PM 82.9 °F - 52.0 °F 34% 30.19 in 10.0 mi Calm Calm - N/A   Clear
2:53 PM 82.9 °F - 52.0 °F 34% 30.17 in 10.0 mi Calm Calm - N/A   Clear
3:53 PM 82.9 °F - 52.0 °F 34% 30.14 in 10.0 mi Calm Calm - N/A   Clear
4:53 PM 84.0 °F - 52.0 °F 33% 30.13 in 10.0 mi NW 4.6 mph - N/A   Clear
5:53 PM 82.9 °F 81.8 °F 53.1 °F 36% 30.13 in 9.0 mi West 3.5 mph - N/A   Clear
6:53 PM 82.0 °F 81.2 °F 53.1 °F 37% 30.12 in 10.0 mi Calm Calm - N/A   Clear
7:53 PM 79.0 °F - 55.0 °F 44% 30.12 in 10.0 mi SSE 3.5 mph - N/A   Clear
8:53 PM 73.9 °F - 55.9 °F 53% 30.13 in 10.0 mi East 5.8 mph - N/A   Clear
9:53 PM 73.0 °F - 55.9 °F 55% 30.13 in 10.0 mi Calm Calm - N/A   Clear
10:53 PM 72.0 °F - 55.9 °F 57% 30.13 in 10.0 mi Calm Calm - N/A   Clear
11:53 PM 71.1 °F - 55.0 °F 57% 30.13 in 10.0 mi Calm Calm - N/A   Clear